RH
101 101 100 101 100 100 101 101 101 100 101 102 101 101 102 101 102 102 101 102 102 102 102 102 102 101 101 101 100 100 100 100 101 100 101 102 100 98 98 98 98 97
101 100 100 101 100 101 101 101 102 101 101 103 102 102 103 102 104 104 101 102 102 101 101 101 101 100 100 101 101 101 101 101 101 100 101 102 101 101 101 102 101 96
101 101 101 102 100 101 102 101 103 103 102 103 103 103 103 101 103 104 101 101 102 101 101 100 100 101 100 100 101 102 101 102 101 101 102 102 103 102 101 99 97 93
102 101 102 102 101 101 102 101 102 104 103 102 102 104 104 101 102 103 102 101 102 101 102 102 101 101 101 101 103 103 102 102 101 101 101 101 101 100 100 98 95 97
102 101 102 103 102 102 103 103 102 103 104 102 102 102 103 102 101 102 103 102 103 103 101 102 102 103 103 102 103 104 103 102 101 101 100 99 102 102 103 102 100 104
104 103 104 104 104 104 105 106 104 103 104 104 104 103 104 106 104 104 106 104 105 107 105 102 103 105 105 104 105 104 103 104 105 104 103 102 105 104 105 106 105 106
105 105 105 104 105 105 106 106 104 104 104 103 104 104 104 107 105 104 106 104 104 108 106 102 102 105 106 105 105 104 103 104 105 105 103 103 106 103 102 105 105 105
103 104 104 102 104 104 103 104 102 103 103 101 104 105 103 104 105 104 104 103 103 104 103 103 102 102 104 103 102 102 103 102 102 103 101 102 105 105 104 105 105 106
102 103 103 102 103 102 101 103 102 102 104 103 103 105 105 104 104 105 105 103 104 104 102 103 104 102 102 103 102 102 103 102 104 106 104 102 104 105 106 105 103 103
105 104 105 103 102 103 103 103 103 103 105 106 104 104 109 107 103 106 110 105 103 106 104 104 106 105 103 104 104 104 103 102 103 105 104 102 101 99 99 99 96 96
106 104 107 106 102 105 107 104 104 104 106 109 107 105 108 109 104 105 109 105 103 107 106 105 106 107 105 103 102 103 103 101 100 101 100 100 100 98 97 97 96 97
95 96 99 99 96 98 102 100 99 101 104 105 106 106 107 107 105 105 106 105 105 106 105 105 106 104 104 104 103 102 103 103 102 102 102 102 103 103 102 100 100 102
88 88 89 90 89 89 90 90 90 92 95 98 100 104 106 106 106 107 105 104 106 108 104 104 107 105 102 103 105 105 104 103 104 104 104 103 103 104 106 104 100 102
91 92 94 96 97 96 94 95 96 96 98 101 102 104 105 106 106 108 107 104 105 109 106 103 106 108 106 104 106 108 107 105 104 105 106 105 103 105 109 108 102 101
79 84 88 92 97 101 102 104 107 109 109 108 107 106 106 108 108 108 109 108 107 108 108 105 104 105 106 105 105 107 108 107 106 107 109 108 106 108 110 109 107 106
63 65 70 74 80 87 92 97 102 108 110 109 109 109 110 112 112 110 111 112 112 111 110 109 107 105 104 103 102 101 102 103 102 102 103 103 103 105 105 106 107 107
61 64 67 70 74 75 77 80 83 86 90 92 94 96 97 98 99 99 100 101 102 103 103 103 103 101 100 99 98 97 96 95 94 93 94 94 94 95 96 98 99 98
61 63 64 64 65 65 64 65 66 68 69 70 72 73 73 74 74 74 75 75 76 77 79 80 80 80 81 81 83 84 85 85 84 84 86 86 86 87 87 87 88 87
63 62 61 59 58 57 56 56 56 57 58 57 59 59 59 60 61 61 61 61 61 61 61 62 62 62 62 63 64 66 68 68 69 70 72 73 73 74 74 74 74 74
65 62 60 58 55 52 51 50 48 49 49 49 50 50 50 51 51 52 53 52 52 53 52 52 51 50 49 48 48 48 48 48 48 49 51 52 54 55 56 57 58 58
66 64 61 58 55 51 48 47 45 44 44 44 45 45 45 46 46 46 47 46 46 46 45 45 44 42 41 40 39 38 37 36 36 36 37 37 39 41 41 42 43 43
70 68 65 61 57 53 50 47 45 44 43 42 42 43 42 42 42 42 41 41 41 40 39 39 39 38 37 36 35 34 33 32 32 32 32 33 33 35 35 37 38 38
70 67 63 58 55 51 48 46 44 42 41 40 39 39 39 39 38 38 38 38 38 38 37 37 37 36 35 34 34 33 32 31 31 30 30 31 31 32 32 33 34 36
62 58 55 52 50 48 46 45 43 42 42 41 41 41 41 41 41 41 42 42 42 42 42 42 42 42 42 41 40 40 39 38 37 37 36 36 36 36 36 36 37 38
54 52 51 50 49 49 48 48 48 48 47 47 48 48 48 49 49 50 51 51 52 52 51 51 51 51 52 51 51 51 50 48 47 46 45 44 43 42 43 43 43 44
53 53 53 53 53 54 54 55 55 55 56 56 56 57 57 57 58 58 60 61 61 60 59 57 56 56 56 56 56 56 55 52 50 48 47 46 44 43 43 43 43 43
Wind_Speed
102 102 103 103 103 103 103 103 103 104 104 105 106 106 107 108 108 109 109 109 110 110 111 111 111 111 110 110 110 109 108 107 107 107 108 108 108 108 108 108 109 110
102 102 103 103 103 104 104 105 106 106 107 108 108 109 110 110 110 110 110 110 109 109 109 109 109 108 108 108 108 108 108 108 108 108 109 109 110 110 110 111 112 113
104 104 104 105 105 105 106 107 108 108 109 109 109 109 109 109 108 108 107 107 106 106 107 107 107 107 108 108 109 109 109 109 109 110 111 111 112 113 113 114 115 116
105 105 105 106 106 106 106 106 106 106 106 106 106 106 106 105 105 105 105 105 105 106 106 107 108 108 109 110 111 111 111 111 112 113 113 114 115 115 116 117 118 117
105 105 105 106 106 106 106 105 105 105 105 105 105 105 105 105 106 106 106 106 107 107 108 109 110 111 112 112 113 114 114 114 115 116 117 116 117 118 118 118 117 116
104 105 105 105 106 106 106 106 107 107 107 107 107 107 108 108 108 109 109 110 110 111 111 112 113 114 115 116 116 117 117 117 118 118 118 117 117 116 116 115 114 113
103 104 104 105 105 106 106 106 107 107 107 107 107 108 108 109 109 109 110 110 111 111 112 113 114 114 115 116 116 116 116 116 116 116 115 114 113 113 113 113 112 112
103 103 104 104 105 105 106 106 107 107 108 107 108 108 108 108 108 109 109 109 110 110 111 111 112 113 113 114 114 114 114 114 114 114 114 113 113 113 113 114 114 113
103 104 105 105 105 106 107 107 108 108 109 109 109 109 109 109 109 109 110 110 110 110 111 112 112 113 113 114 114 114 115 115 116 116 116 115 115 115 115 116 115 115
104 105 106 106 107 107 108 108 109 109 110 110 110 110 111 111 111 111 111 111 111 112 112 113 114 114 115 115 116 116 116 117 117 118 118 118 117 117 117 117 116 116
103 104 105 106 107 108 108 108 109 109 110 110 110 111 111 111 112 112 112 112 112 113 113 114 115 115 116 116 117 117 118 118 118 119 119 119 119 118 118 118 118 117
103 104 105 106 107 108 108 109 109 109 110 110 111 111 112 112 113 113 113 114 114 114 115 115 116 117 118 118 118 119 119 120 120 120 120 120 120 120 120 120 119 119
103 105 106 106 107 108 109 109 110 110 111 111 112 112 113 113 114 115 115 115 116 116 117 117 118 119 119 120 121 121 122 122 122 122 122 122 122 122 122 122 122 122
104 105 106 107 108 109 109 110 110 111 112 112 113 114 114 115 116 116 117 117 118 118 118 119 119 120 121 121 122 123 123 123 124 124 124 124 124 124 124 124 124 123
103 104 106 107 107 108 108 109 110 111 112 113 114 114 115 116 117 117 118 119 119 120 120 121 121 122 123 123 124 124 125 125 125 125 125 125 125 125 125 125 125 125
102 103 104 105 105 106 107 107 108 110 111 112 113 114 115 116 117 117 118 119 119 120 121 122 123 124 124 125 126 126 127 127 127 127 127 127 127 127 127 128 128 128
101 102 103 104 105 106 106 107 108 109 110 111 112 113 114 115 116 117 118 119 119 120 121 122 123 124 125 126 127 127 128 128 128 128 128 129 129 129 129 129 130 130
101 102 103 104 105 106 107 108 109 109 110 111 111 112 113 114 115 116 117 118 119 119 120 121 122 123 124 125 126 127 128 128 128 128 128 128 129 129 129 129 130 130
101 102 103 104 105 106 107 108 109 110 111 111 112 112 113 114 115 115 116 117 117 118 118 119 119 120 121 122 123 124 125 125 126 126 126 126 126 127 127 127 128 128
102 103 103 104 104 105 106 107 108 109 109 110 111 111 112 113 113 114 114 114 115 115 115 115 116 116 117 118 118 119 120 121 121 121 121 121 121 122 123 123 124 124
104 104 104 105 105 105 106 106 107 107 108 108 109 109 110 110 111 111 111 111 111 111 111 112 113 113 114 114 115 115 115 115 115 115 115 115 115 116 117 118 118 119
105 105 106 106 106 107 107 107 107 107 107 107 108 108 108 108 108 108 108 108 108 108 108 108 109 109 110 110 111 111 111 111 111 110 110 110 110 110 111 112 112 113
104 105 106 106 106 106 106 106 106 106 106 106 105 105 106 106 106 106 105 106 105 106 105 105 105 106 106 107 107 107 108 108 107 107 107 106 106 107 107 107 108 109
103 103 104 104 105 105 105 104 104 104 104 104 103 103 103 104 104 105 105 106 106 106 106 105 105 105 105 105 106 106 106 106 106 105 105 104 104 105 105 105 104 105
101 102 102 102 102 102 102 102 102 102 102 102 102 102 103 103 104 104 105 105 106 106 106 106 106 106 106 106 106 107 107 107 106 105 105 104 104 104 104 104 104 103
100 100 101 101 101 101 101 101 101 101 101 101 102 102 102 103 103 104 104 104 105 106 106 106 106 106 107 107 107 108 108 108 107 107 106 105 105 104 104 104 104 104
Wind_Direction
269 269 270 270 270 271 271 271 271 271 271 271 271 271 271 271 271 272 272 272 272 272 272 272 272 273 273 273 273 273 273 273 273 273 273 273 273 274 274 274 275 275
266 267 267 268 268 268 269 269 269 270 270 270 271 271 271 271 271 272 272 272 272 272 272 272 272 272 272 272 272 272 272 272 272 272 273 273 274 274 275 275 275 275
264 265 265 266 266 267 268 268 268 269 269 270 270 270 270 271 271 271 271 271 271 270 270 270 270 271 271 271 271 271 271 271 272 272 273 273 274 275 275 275 276 276
263 264 265 265 266 266 267 267 268 268 269 269 269 269 270 270 270 270 270 270 270 270 270 270 270 270 270 270 271 271 271 272 272 272 273 274 274 275 276 276 276 277
264 264 265 265 265 265 266 266 266 267 267 268 268 269 269 269 269 269 270 270 270 270 270 270 271 271 271 271 271 272 272 273 273 273 274 275 275 276 276 276 276 277
266 266 266 266 266 266 266 266 266 267 267 267 268 268 268 269 269 269 269 270 270 270 270 271 271 271 272 272 272 273 273 274 274 274 274 275 275 275 275 275 275 275
266 267 267 267 268 268 268 269 269 269 269 269 269 269 269 270 270 270 270 271 271 271 271 272 272 272 272 273 273 273 274 274 274 274 274 274 274 274 274 275 275 275
266 266 267 267 268 268 269 269 269 270 270 270 270 270 270 270 270 271 271 271 272 272 272 272 273 273 273 273 273 273 274 274 274 274 274 274 274 274 274 274 274 275
266 266 267 267 267 268 268 268 269 269 269 270 270 270 270 270 270 271 271 271 271 272 272 272 272 272 273 273 273 273 273 273 273 273 273 273 273 273 273 274 274 274
266 266 267 267 267 267 268 268 268 269 269 269 270 270 270 270 270 271 271 271 271 271 271 272 272 272 272 272 272 272 272 272 273 273 273 273 273 273 274 274 274 275
266 266 267 267 267 267 267 268 268 268 269 269 270 270 270 271 271 271 271 271 271 271 272 272 272 272 272 272 273 273 273 273 273 274 274 274 274 275 275 275 275 275
267 267 267 267 267 267 268 268 268 269 269 270 270 271 271 271 272 272 272 272 272 272 272 272 273 273 273 273 274 274 274 274 274 274 274 275 275 275 275 275 275 275
269 269 269 269 269 269 269 269 270 270 270 271 271 271 272 272 272 272 272 272 272 273 273 273 273 273 273 274 274 274 274 274 274 274 274 274 274 274 274 274 274 274
271 270 270 270 270 270 271 271 271 272 272 272 272 272 272 272 272 272 272 272 272 272 273 273 273 273 273 273 273 273 273 274 274 274 274 274 274 274 274 274 274 274
272 271 271 271 271 271 271 272 272 272 272 272 272 272 272 272 272 272 272 273 273 273 273 273 273 273 273 273 273 273 273 273 273 273 274 274 274 274 274 274 274 274
273 273 273 273 273 273 272 272 271 271 271 271 271 271 271 272 272 272 272 272 273 273 273 273 273 273 273 273 273 273 273 273 273 273 273 273 274 274 274 274 274 274
274 274 274 274 274 273 273 272 272 272 271 271 271 271 271 271 271 271 271 271 271 271 272 272 272 272 272 273 273 273 273 273 273 273 273 273 273 273 274 274 274 274
274 274 274 274 274 273 273 273 273 273 273 273 272 272 272 272 272 272 272 272 272 271 271 272 272 272 272 272 273 273 273 273 273 273 273 273 273 273 273 273 274 274
275 275 274 274 274 274 274 274 274 274 274 274 274 274 274 274 274 274 274 274 274 274 274 274 274 273 273 273 273 273 273 273 273 273 273 273 273 273 273 273 273 273
276 276 276 276 276 276 276 276 276 276 276 276 276 276 276 276 276 276 276 276 276 276 275 275 275 274 274 273 273 272 272 272 272 272 272 272 272 272 272 272 273 273
278 279 279 279 279 279 279 279 279 278 278 278 278 278 278 277 277 277 277 277 277 276 276 276 275 275 274 274 274 273 273 273 272 272 272 272 271 271 272 272 272 272
280 280 281 281 281 281 281 280 280 280 280 279 279 279 279 279 278 278 278 277 277 277 276 276 275 275 275 275 274 274 274 273 273 272 272 272 271 271 271 271 271 271
280 280 280 281 281 280 280 280 280 280 280 280 280 280 280 280 280 280 280 279 279 278 278 277 277 276 276 276 275 275 274 274 273 272 272 272 271 271 270 270 270 271
280 280 280 280 280 280 280 281 281 281 281 281 281 281 281 281 281 281 281 280 280 280 279 279 279 278 278 277 277 276 276 275 274 274 273 273 272 272 271 271 270 270
281 281 281 281 281 281 281 281 281 281 281 281 281 281 281 281 280 280 280 280 280 280 280 280 280 279 279 279 278 278 277 277 276 276 275 275 274 273 273 272 272 271
281 281 281 281 281 281 281 281 281 281 281 281 281 281 280 280 280 280 280 280 280 280 280 280 280 279 279 279 279 278 278 278 278 277 277 276 275 275 274 274 273 273